Location: Chakepay
(13.3931°S, 72.1925°W)
Time: 01:31:14
(UTC+00:00)

Cosmos 1782 - Pass Details

Date: 15 November 2019
Orbit: 536 x 554 km, 82.5° (Epoch: 10 December)

Event Time Altitude Azimuth Distance (km) Brightness Sun altitude
Rises 00:18:07 0° 196° (SSW) 2,730 7.0 -19.6°
Reaches altitude 10° 00:20:22 10° 203° (SSW) 1,834 6.1 -20.1°
Maximum altitude 00:24:09 39° 273° (W) 833 4.1 -20.9°
Enters shadow 00:27:53 10° 342° (NNW) 1,809 5.4 -21.7°
